This demonstration page uses our WeatherBlox Daily Observations layout. Learn more.

Left ArrowRight Arrow

44.89941, -97.11507

Hourly Observations for April 29, 2016

Temp ( °F °C ) Dew Point ( °F °C ) Humidity (%) Winds ( mph kmh ) Pressure ( in mb ) Visibility ( mi km ) Precip ( " mm )
12:53 am 00:53 Cloudy 38 3.3 36 2.2 93 93 NE 3 6 30.16 1021 10 16 0.00 0.00
1:37 am 01:37 Mostly Cloudy 38 3.3 35 1.7 89 89 S 3 6 30.21 1023 10 16 0.00 0.00
1:53 am 01:53 Mostly Cloudy 38 3.3 35 1.7 89 89 S 5 7 30.18 1022 10 16 0.00 0.00
2:48 am 02:48 Mostly Clear 37 3 34 1 87 87 Calm 30.21 1023 10 16 0.00 0.00
2:53 am 02:53 Mostly Clear 37 2.8 34 1.1 89 89 Calm 30.18 1022 10 16 0.00 0.00
3:53 am 03:53 Mostly Cloudy 35 1.7 33 0.6 93 93 NNW 3 6 30.19 1022 7 11 0.00 0.00
4:28 am 04:28 Mostly Cloudy with Mist and Fog 35 1.7 33 0.6 93 93 Calm 30.21 1023 2 3 0.00 0.00
4:37 am 04:37 Mostly Cloudy with Mist and Fog 35 1.7 33 0.6 93 93 Calm 30.21 1023 3 5 0.00 0.00
4:47 am 04:47 Cloudy with Mist and Fog 34 1 34 1 100 100 N 3 6 30.21 1023 2 3 0.00 0.00
4:53 am 04:53 Cloudy with Mist and Fog 34 1.1 33 0.6 97 97 Calm 30.19 1022 1 2 0.00 0.00
5:00 am 05:00 Cloudy with Mist and Fog 34 1.1 32 0 92 92 Calm 30.21 1023 1 1 0.00 0.00
5:07 am 05:07 Cloudy with Mist and Fog 34 1.1 32 0 92 92 NNE 3 6 30.21 1023 2 2 0.00 0.00
5:25 am 05:25 Cloudy with Mist and Fog 34 1.1 32 0 92 92 Calm 30.21 1023 3 4 0.00 0.00
5:33 am 05:33 Mostly Cloudy with Mist and Fog 34 1.1 32 0 92 92 Calm 30.21 1023 4 6 0.00 0.00
5:48 am 05:48 Mostly Clear with Mist and Fog 34 1 32 0 93 93 NNE 3 6 30.21 1023 2 3 0.00 0.00
5:53 am 05:53 Partly Cloudy with Mist and Fog 34 1.1 32 0 92 92 NNE 3 6 30.19 1022 2 3 0.00 0.00
5:58 am 05:58 Partly Cloudy with Mist and Fog 33 0.6 31 -0.6 92 92 NNE 3 6 30.21 1023 3 5 0.00 0.00
6:53 am 06:53 Partly Cloudy with Mist and Fog 35 1.7 33 0.6 93 93 Calm 30.22 1023 5 8 0.00 0.00
7:53 am 07:53 Cloudy 39 3.9 36 2.2 89 89 N 5 7 30.21 1023 9 14 0.00 0.00
8:53 am 08:53 Cloudy 42 5.6 38 3.3 85 85 NNE 9 15 30.19 1022 10 16 0.00 0.00
9:53 am 09:53 Mostly Cloudy 47 8.3 38 3.3 71 71 NE 7 11 30.18 1022 10 16 0.00 0.00
10:41 am 10:41 Mostly Cloudy 50 10 39 3.9 66 66 E 10 17 30.15 1021 10 16 0.00 0.00
10:53 am 10:53 Mostly Cloudy 50 10 39 3.9 66 66 NE 10 17 30.16 1022 10 16 0.00 0.00
11:21 am 11:21 Partly Cloudy 50 10 38 3.3 63 63 ENE 14 22 30.12 1020 10 16 0.00 0.00
11:53 am 11:53 Mostly Sunny 50 10 36 2.2 59 59 NE 15 24 30.16 1021 10 16 0.00 0.00
12:53 pm 12:53 Partly Cloudy 53 11.7 38 3.3 57 57 E 12 19 30.16 1021 10 16 0.00 0.00
1:53 pm 13:53 Partly Cloudy 53 11.7 38 3.3 57 57 E 12 19 30.14 1021 10 16 0.00 0.00
2:53 pm 14:53 Mostly Cloudy 53 11.7 36 2.2 52 52 ESE 14 22 30.14 1021 10 16 0.00 0.00
3:53 pm 15:53 Cloudy 52 11.1 37 2.8 57 57 SE 7 11 30.14 1021 10 16 0.00 0.00
4:53 pm 16:53 Cloudy 52 11.1 37 2.8 57 57 ESE 7 11 30.15 1021 10 16 0.00 0.00
5:53 pm 17:53 Cloudy 51 10.6 38 3.3 61 61 E 7 11 30.14 1021 10 16 0.00 0.00
6:53 pm 18:53 Cloudy 51 10.6 38 3.3 61 61 E 9 15 30.12 1020 10 16 0.00 0.00
7:53 pm 19:53 Cloudy 51 10.6 38 3.3 61 61 ENE 7 11 30.11 1020 10 16 0.00 0.00
8:53 pm 20:53 Cloudy 49 9.4 39 3.9 69 69 NE 8 13 30.10 1019 10 16 0.00 0.00
9:53 pm 21:53 Clear 42 5.6 37 2.8 82 82 NE 6 9 30.10 1019 10 16 0.00 0.00
10:53 pm 22:53 Clear 41 5 36 2.2 82 82 NE 6 9 30.10 1019 10 16 0.00 0.00
11:53 pm 23:53 Clear 39 3.9 35 1.7 86 86 Calm 30.10 1019 10 16 0.00 0.00

Powered by AerisWeather